AirNav   Air Wisconsin pilot careers
 
 797 users online  

T85 Yoakum Municipal Airport
Yoakum, Texas, USA

GOING TO YOAKUM?


FAA INFORMATION EFFECTIVE 11 OCTOBER 2018

Location

FAA Identifier: T85
Lat/Long: 29-18-47.4000N / 097-08-18.3000W
29-18.790000N / 097-08.305000W
29.3131667 / -97.1384167
(estimated)
Elevation: 365.4 ft. / 111.4 m (surveyed)
Variation: 06E (1995)
From city: 1 mile N of YOAKUM, TX
Time zone: UTC -5 (UTC -6 during Standard Time)
Zip code: 77995

Airport Operations

Airport use: Open to the public
Activation date: 01/1970
Control tower: no
ARTCC: HOUSTON CENTER
FSS: MONTGOMERY COUNTY FLIGHT SERVICE STATION
FOR FP FILING CALL CXO FSS 1-800-992-7433.
NOTAMs facility: CXO (NOTAM-D service available)
Attendance: UNATNDD
Wind indicator: lighted
Segmented circle: yes
Lights: SS-SR
Beacon: white-green (lighted land airport)
BEACON OTS.

Airport Communications

CTAF: 122.9
  • APCH/DEP CONTROL PROVIDED BY HOUSTON ARTCC ON FREQS 132.8/343.7 (SAN ANTONIO RCAG).

Nearby radio navigation aids

VOR radial/distance  VOR name  Freq  Var
VCTr335/26.1VICTORIA VOR/DME109.0006E

 
NDB name  Hdg/Dist  Freq  Var  ID
YOAKUMat field35006EOKT --- -.- -

Airport Services

Parking: tiedowns

Runway Information

Runway 13/31

Dimensions: 3444 x 60 ft. / 1050 x 18 m
Surface: asphalt, in fair condition
Weight bearing capacity: 
Single wheel: 12.0
Runway edge lights: medium intensity
Runway edge markings: RY 13/31 MARKINGS BADLY FADED.
RUNWAY 13  RUNWAY 31
Latitude: 29-18.988100N29-18.592213N
Longitude: 097-08.536848W097-08.071732W
Elevation: 365.1 ft.341.1 ft.
Gradient: 0.7%0.7%
Traffic pattern: leftleft
Runway heading: 128 magnetic, 134 true308 magnetic, 314 true
Markings: nonprecision, in poor conditionnonprecision, in poor condition
Touchdown point: yes, no lightsyes, no lights
Obstructions: 35 ft. pole, 1007 ft. from runway, 196 ft. left of centerline, 23:1 slope to clear34 ft. pole, marked and lighted, 1233 ft. from runway, 195 ft. right of centerline, 30:1 slope to clear
4 FT FENCE 0- 200 FT FM THLD AT 228 FT RIGHT.

Airport Ownership and Management from official FAA records

Ownership: Publicly-owned
Owner: CITY OF YOAKUM
PO BOX 738
YOAKUM, TX 77995
Phone (361) 293-6321
Manager: KEVIN COLEMAN
PO BOX 738
YOAKUM, TX 77995-0738
Phone (361) 293-6321
CITY MANAGER

Airport Operational Statistics

Aircraft based on the field: 5
Single engine airplanes: 5
    
Aircraft operations: avg 75/month *
67% local general aviation
33% transient general aviation
* for 12-month period ending 03 January 2017

Instrument Procedures

NOTE: All procedures below are presented as PDF files. If you need a reader for these files, you should download the free Adobe Reader.

NOT FOR NAVIGATION. Please procure official charts for flight.
FAA instrument procedures published for use from 11 October 2018 at 0901Z to 8 November 2018 at 0900Z.

 
IAPs - Instrument Approach Procedures
RNAV (GPS) RWY 31   download (145KB)
NDB RWY 31   download (140KB)
NOTE: Special Take-Off Minimums/Departure Procedures apply   download (107KB)

Other nearby airports with instrument procedures:

KVCT - Victoria Regional Airport (30 nm SE)
26R - Jackson County Airport (35 nm SE)
3T5 - Fayette Regional Air Center Airport (37 nm N)
50R - Lockhart Municipal Airport (43 nm NW)
KELA - Eagle Lake Airport (46 nm E)
 
Loc | Ops | Rwys | IFR | FBO | Links
Com | Nav | Svcs | Stats | Notes


 
Area around T85 (Yoakum Municipal Airport)
 
Road maps at: MapQuest Bing Google
 
Aerial photo
WARNING: Photo may not be current or correct
Aerial photo of T85 (Yoakum Municipal Airport)
Do you have a better or more recent aerial photo of Yoakum Municipal Airport that you would like to share? If so, please send us your photo.

 
Sectional chart

 
Airport distance calculator
Flying to Yoakum Municipal Airport? Find the distance to fly.

From to T85

Sunrise and sunset
Times for 18-Oct-2018
 Local
(UTC-5)
 Zulu
(UTC)
Morning civil twilight07:0912:09
Sunrise07:3312:33
Sunset18:5523:55
Evening civil twilight19:1900:19

Current date and time
Zulu (UTC)  19-Oct-2018 03:32:23
Local (UTC-5)  18-Oct-2018 22:32:23
 
METAR
KT20 
21nm NW 
190315Z AUTO 02003KT 10SM DZ OVC018 17/15 A3022 RMK AO2 T01730150
KVCT 
29nm S 
190251Z AUTO 04010KT 10SM OVC023 19/17 A3018 RMK AO2 SLP219 T01940167 50009
K3T5 
37nm N 
190315Z AUTO 02003KT 10SM OVC020 18/16 A3021 RMK AO2 T01820160
K66R 
38nm NE 
190315Z AUTO 04004KT 10SM OVC021 19/15 A3022 RMK AO2 T01870153
TAF
KVCT 
29nm S 
181740Z 1818/1918 02012KT P6SM OVC010 TEMPO 1822/1902 5SM -RA OVC008 FM190200 02010KT P6SM -RA OVC009 TEMPO 1903/1906 3SM SHRA OVC006 FM190600 02007KT 4SM -SHRA BR OVC006 TEMPO 1910/1914 2SM SHRA BR OVC004 FM191400 01008KT 5SM -SHRA BR OVC006 PROB30 1916/1918 1SM SHRA BR OVC002
NOTAMs
Click for the latest NOTAMs
NOTAMs are issued by the DoD/FAA and will open in a separate window not controlled by AirNav.

 

 
 

Would you like to see your business listed on this page?

 If your business provides an interesting product or service to pilots, flight crews, aircraft, or users of the Yoakum Municipal Airport, you should consider listing it here.  To start the listing process, click on the button below
 
Add a business
 

Other Pages about Yoakum Municipal Airport

Update a link
 
Copyright © AirNav, LLC. All rights reserved. Privacy Policy  Contact